TimeCST,TemperatureF,Dew PointF,Humidity,Sea Level PressureIn,VisibilityMPH,Wind Direction,Wind SpeedMPH,Gust SpeedMPH,PrecipitationIn,Events,Conditions,WindDirDegrees,DateUTC
12:53 AM,21.9,16.0,78,30.38,10.0,ESE,4.6,-,N/A,,Clear,110,2014-01-30 06:53:00
1:53 AM,21.0,15.1,78,30.35,10.0,SE,4.6,-,N/A,,Clear,130,2014-01-30 07:53:00
2:53 AM,21.9,15.1,75,30.34,10.0,East,4.6,-,N/A,,Clear,100,2014-01-30 08:53:00
3:53 AM,21.9,15.1,75,30.32,10.0,ENE,5.8,-,N/A,,Clear,60,2014-01-30 09:53:00
4:53 AM,19.9,16.0,85,30.33,10.0,Calm,Calm,-,N/A,,Clear,0,2014-01-30 10:53:00
5:53 AM,21.0,15.1,78,30.32,10.0,SE,3.5,-,N/A,,Clear,130,2014-01-30 11:53:00
6:53 AM,21.9,16.0,78,30.31,10.0,ESE,4.6,-,N/A,,Clear,110,2014-01-30 12:53:00
7:53 AM,26.1,19.0,75,30.30,10.0,ESE,6.9,-,N/A,,Clear,110,2014-01-30 13:53:00
8:53 AM,32.0,23.0,69,30.30,10.0,ESE,8.1,-,N/A,,Clear,120,2014-01-30 14:53:00
9:53 AM,37.9,27.0,65,30.32,10.0,ESE,6.9,-,N/A,,Clear,120,2014-01-30 15:53:00
10:53 AM,44.1,32.0,63,30.30,10.0,SSE,12.7,-,N/A,,Clear,160,2014-01-30 16:53:00
11:53 AM,48.0,33.1,56,30.25,10.0,SSE,13.8,-,N/A,,Clear,150,2014-01-30 17:53:00
12:53 PM,50.0,34.0,54,30.22,10.0,South,6.9,-,N/A,,Clear,170,2014-01-30 18:53:00
1:53 PM,52.0,35.1,53,30.17,10.0,South,10.4,-,N/A,,Clear,190,2014-01-30 19:53:00
2:53 PM,53.1,37.9,57,30.15,10.0,SSE,15.0,-,N/A,,Clear,150,2014-01-30 20:53:00
3:53 PM,52.0,39.9,63,30.14,10.0,SSE,12.7,-,N/A,,Mostly Cloudy,160,2014-01-30 21:53:00
4:53 PM,50.0,41.0,71,30.12,10.0,SSE,10.4,-,N/A,,Overcast,150,2014-01-30 22:53:00
5:53 PM,48.0,42.1,80,30.11,10.0,SSE,8.1,-,N/A,,Mostly Cloudy,160,2014-01-30 23:53:00
6:53 PM,44.1,41.0,89,30.10,10.0,SE,12.7,-,N/A,,Mostly Cloudy,140,2014-01-31 00:53:00
7:53 PM,44.1,41.0,89,30.11,10.0,SE,12.7,-,N/A,,Overcast,140,2014-01-31 01:53:00
8:02 PM,44.1,41.0,89,30.08,10.0,SE,13.8,-,N/A,,Overcast,140,2014-01-31 02:02:00
8:10 PM,44.1,41.0,89,30.08,10.0,SE,13.8,-,N/A,,Overcast,140,2014-01-31 02:10:00
8:50 PM,42.8,41.0,93,30.07,10.0,SE,10.4,-,N/A,,Overcast,130,2014-01-31 02:50:00
8:53 PM,43.0,41.0,93,30.10,10.0,SE,11.5,-,N/A,,Overcast,140,2014-01-31 02:53:00
9:53 PM,44.1,42.1,93,30.08,10.0,SE,15.0,-,N/A,,Overcast,140,2014-01-31 03:53:00
10:28 PM,45.0,43.0,93,30.06,10.0,SE,11.5,-,N/A,,Overcast,140,2014-01-31 04:28:00
10:40 PM,46.0,44.1,93,30.06,10.0,SE,11.5,-,N/A,,Overcast,140,2014-01-31 04:40:00
10:53 PM,46.0,44.1,93,30.08,10.0,SE,9.2,-,N/A,,Overcast,140,2014-01-31 04:53:00
11:53 PM,46.9,45.0,93,30.07,10.0,SSE,13.8,-,N/A,,Overcast,150,2014-01-31 05:53:00